Cabot Strait: Past 24 Hour Conditions

 

Winterland

05:30 AM NDT 25 October 2014
This table is a summary of hourly weather conditions for the past 24 hours.
Date / Time
(NDT)
Wind(knots) Conditions Visibility(km) Pressure(kPa) Air tempC) Relative humidity(%) Dew pointC)
25 October 2014
5:30 E 4 N/A 3 99.4 10 100 10
4:30 E 7 Light Rain 1 99.5 11 100 11
3:30 E 7 N/A 1 99.5 11 100 11
2:30 E 8 N/A 0.5 99.6 11 100 11
1:30 E 8 N/A 0.3 99.7 11 100 11
0:30 E 7 N/A 0.5 99.8 11 100 11
24 October 2014
23:30 ESE 7 N/A 4 99.8 11 100 11
22:30 E 8 N/A 10 99.9 11 100 11
21:30 E 7 N/A 4 99.9 11 100 11
20:30 ESE 11 gust 16 N/A 15 99.9 11 100 11
19:30 E 15 N/A 8 100.0 11 100 11
18:30 E 10 gust 16 N/A 15 100.1 11 100 11
17:30 E 9 N/A 6 100.2 11 100 11
16:30 E 11 gust 22 N/A 5 100.2 12 100 12
15:30 E 14 gust 19 N/A 6 100.3 12 100 12
14:30 E 14 gust 20 N/A 4 100.4 12 100 12
13:30 E 12 gust 19 N/A 8 100.6 12 100 12
12:30 E 10 gust 22 N/A 4 100.7 12 99 12
11:30 E 12 N/A 8 100.8 11 99 11
10:30 E 14 N/A 13 100.9 11 99 11
9:30 E 12 gust 21 N/A 11 101.0 11 99 11
8:30 E 13 gust 18 N/A 6 101.1 11 100 11
7:30 E 14 N/A 13 101.1 10 99 10
6:30 E 13 gust 22 N/A 11 101.2 10 100 10
5:30 E 15 N/A 11 101.2 10 99 10
 
Map of Atlantic - Newfoundland marine weather areas Southwestern Grand Banks - 44138 Banquereau - 44139 Tail of the Bank - 44140 Nickerson Bank - 44251 Northeast Burgeo Bank - 44255 Blanc-Sablon Airport Cap Whittle Chevery Natashquan Airport Heath Point Miscou Island Grand Étang Ingonish Beach North Mountain St.Paul Island J.A. Douglas McCurdy Sydney Airport Charlottetown Airport East Point North Cape Argentia Bonavista Burgeo Cape Race Corner Brook Daniel's Harbour Englee Ferolle Point La Scie Port aux Basques Rocky Harbour Sagona Island St. Anthony Airport St. John's Int'l Airport St. Lawrence Stephenville Airport Twillingate Winterland Wreckhouse Cartwright Airport Mary's Harbour Grates Cove Pool's Island Marticot Island Long Pond Îles de la Madeleine Airport
Legend: buoyBuoy land stationLand Station